Regional Weather Roundup
Issued by NWS

Home | Current Version | Previous Version | Text Only | Print | Product List | Glossary Off
Versions: 1 2 3 4 5 6 7 8 9 10 11 12 13 14 15 16 17 18 19 20 21 22 23 24 25 26 27 28 29 30 31 32 33 34 35 36 37 38 39 40 41 42 43 44 45 46 47 48 49 50

252
ASUS45 KPSR 201910
RWRAZ

ARIZONA HOURLY REGIONAL WEATHER ROUNDUP
NATIONAL WEATHER SERVICE PHOENIX AZ
1200 PM MST SUN AUG 20 2017

NOTE: FAIR INDICATES FEW OR NO CLOUDS BELOW 12,000 FEET WITH NO
SIGNIFICANT WEATHER AND/OR OBSTRUCTIONS TO VISIBILITY.

AZZ001>003-036-202000-
NORTHWEST ARIZONA

CITY           SKY/WX    TMP DP  RH WIND       PRES   REMARKS
BULLHEAD CITY  SUNNY    102  46  15 SW7G14    29.82F
KINGMAN        SUNNY     92  44  19 MISG      30.03F
$$

AZZ004>008-015-016-018-202000-
NORTH CENTRAL ARIZONA

CITY           SKY/WX    TMP DP  RH WIND       PRES   REMARKS
GRAND CANYON   MOSUNNY   80  43  26 VRB6      30.26F
WILLIAMS       LGT RAIN  66  57  72 W5        30.28S
PRESCOTT       CLOUDY    78  52  40 CALM      30.17F
FLAGSTAFF      MOSUNNY   76  49  38 VRB6      30.28F
PAYSON           N/A     82  43  24 SW12G18   30.17F
PAGE           MOSUNNY   91  38  15 N9        30.04F
$$

AZZ009>014-017-202000-
NORTHEAST ARIZONA

CITY           SKY/WX    TMP DP  RH WIND       PRES   REMARKS
WINSLOW        MOSUNNY   91  42  18 N10       30.09F
SAINT JOHNS    CLOUDY    80  48  32 W12       30.16F
WINDOW ROCK    CLOUDY    79  42  26 NW7       30.21F
SHOW LOW       CLOUDY    73  52  46 S14       30.24F
$$

AZZ540-542>544-546-548-202000-
GREATER PHOENIX AREA

CITY           SKY/WX    TMP DP  RH WIND       PRES   REMARKS
PHOENIX        CLOUDY    96  56  26 VRB6      29.89F
BUCKEYE        MOSUNNY   91  54  27 SE5       29.90F
GLENDALE       PTSUNNY   91  57  31 NE6       29.91F
LUKE AFB       CLOUDY    91  56  30 E5        29.89F
DEER VALLEY    CLOUDY    90  52  27 S5        29.91F
SCOTTSDALE     PTSUNNY   92  51  24 CALM      29.93F
MESA-FALCON    PTSUNNY   91  55  29 SW8       29.92F
MESA-GATEWAY   PTSUNNY   93  54  26 CALM      29.92F
CHANDLER       PTSUNNY   93  57  29 S7        29.91F
$$

AZZ539-553-202000-
SOUTHWEST MARICOPA COUNTY AND PINAL COUNTY

CITY           SKY/WX    TMP DP  RH WIND       PRES   REMARKS
CASA GRANDE    PTSUNNY   93  59  31 SE5       29.93F
GILA BEND      FAIR      98  54  22 NW7       29.85
$$

AZZ503-504-507>509-202000-
SOUTHEAST ARIZONA

CITY           SKY/WX    TMP DP  RH WIND       PRES   REMARKS
TUCSON         NOT AVBL
DAVIS-MONTHAN  PTSUNNY   97  55  24 SE6       30.00F
RYAN FIELD     SUNNY     91  54  27 SE9       30.00
NOGALES        CLOUDY    82  58  43 VRB6      30.10F
SIERRA VISTA   PTSUNNY   80  53  38 NE3       30.16F
DOUGLAS        CLOUDY    77  60  55 E6        30.12F
SAFFORD        CLOUDY    82  60  47 VRB6      30.04F
$$

AZZ532-202000-
SOUTHWEST ARIZONA

CITY           SKY/WX    TMP DP  RH WIND       PRES   REMARKS
YUMA           SUNNY     98  62  30 CALM      29.81F
$$

CAZ041-043-047-048-061-525>527-560>570-202000-
SOUTHERN CALIFORNIA

CITY           SKY/WX    TMP DP  RH WIND       PRES   REMARKS
DOWNTOWN L.A.  SUNNY     79  60  52 VRB3      29.92F
L.A. AIRPORT   MOSUNNY   73  61  65 W12       29.94F
SAN DIEGO      MOSUNNY   73  60  63 SW10      29.96F
BURBANK        SUNNY     75  59  57 SE8       29.93F
ONTARIO        SUNNY     77  58  51 VRB3      29.94F
RIVERSIDE      SUNNY     78  60  53 W7        29.93F
PALM SPRINGS   SUNNY     99  43  14 VRB7      29.84F
EL CENTRO NAS  SUNNY     99  47  17 VRB6      29.82F
IMPERIAL       SUNNY     98  55  23 VRB3      29.79F
BLYTHE         SUNNY    101  38  11 VRB6      29.82F
NEEDLES        SUNNY    103  45  14 VRB3      29.83F
$$

NVZ020-UTZ003-202000-
SOUTHERN NEVADA-UTAH

CITY           SKY/WX    TMP DP  RH WIND       PRES   REMARKS
LAS VEGAS      MOSUNNY   96  43  16 SE8       29.91F
SALT LAKE CITY MOSUNNY   91  37  15 S7        30.02F
$$

NMZ009-TXZ055-202000-
NEW MEXICO-WEST TEXAS

CITY           SKY/WX    TMP DP  RH WIND       PRES   REMARKS
ALBUQUERQUE    CLOUDY    75  52  44 SW17G24   30.18F
EL PASO        CLOUDY    73  68  84 NW5       30.12F
$$


........................KEY........................
SKY/WX - SKY CONDITION/WEATHER
TMP    - TEMPERATURE IN FAHRENHEIT
DP     - DEW POINT IN FAHRENHEIT
RH     - RELATIVE HUMIDITY IN PERCENT
WIND   - DIRECTION AND SPEED IN MILES PER HOUR (MPH)
VRB    - VARIABLE WIND DIRECTION
PRES   - MEAN SEA LEVEL PRESSURE IN INCHES OF MERCURY
         F - FALLING PRESSURE   R - RISING PRESSURE
         S - STEADY PRESSURE
VSB    - VISIBILITY IN MILES
HX     - HEAT INDEX IN FAHRENHEIT
WCI    - WIND CHILL INDEX IN FAHRENHEIT
TC     - TEMPERATURE IN CELSIUS WHICH IS ALSO KNOWN AS
         TEMPERATURE IN CENTIGRADE
AFB    - AIR FORCE BASE
         LUKE AFB IS LUKE AIR FORCE BASE
         DAVIS-MONTHAN IS DAVIS-MONTHAN AIR FORCE BASE
NAS    - NAVAL AIR STATION
         EL CENTRO NAS IS EL CENTRO NAVAL AIR STATION
N/A    - NOT AVAILABLE





USA.gov is the U.S. government's official web portal to all federal, state and local government web resources and services.